SLI1624 MMMX-MMAS

Flight info

Callsign SLI1624
Flight time 0h 49m
Altitude 34000
Route SEBON3A SEBON UT125 MLM UJ40 OMINA OMINA1A
Aircraft E190/M-SDE3GILORVW/S

Departure

Time 2026-04-14 14:51
Airport Mexico City Benito Juárez International Airport (MMMX)

Arrival

Time 2026-04-14 15:40
Airport Aguascalientes International Airport (MMAS)
Time Latitude Longitude Altitude Speed Heading
2026-04-14 14:35 19.42131 -99.07948 7301 ft 0 kts 32°
2026-04-14 14:44 19.42125 -99.07952 7301 ft 2 kts 32°
2026-04-14 14:44 19.42111 -99.07962 7301 ft 2 kts 32°
2026-04-14 14:44 19.42097 -99.07971 7301 ft 2 kts 33°
2026-04-14 14:45 19.42087 -99.07978 7302 ft 1 kts 33°
2026-04-14 14:45 19.42087 -99.07979 7302 ft 0 kts 33°
2026-04-14 14:47 19.42093 -99.07982 7301 ft 1 kts 335°
2026-04-14 14:47 19.42114 -99.08025 7301 ft 14 kts 300°
2026-04-14 14:47 19.42186 -99.08151 7301 ft 22 kts 301°
2026-04-14 14:48 19.42303 -99.08200 7301 ft 18 kts
2026-04-14 14:48 19.42400 -99.08286 7301 ft 23 kts 293°
2026-04-14 14:48 19.42461 -99.08436 7302 ft 19 kts 292°
2026-04-14 14:48 19.42476 -99.08474 7302 ft 0 kts 292°
2026-04-14 14:49 19.42476 -99.08475 7302 ft 1 kts 292°
2026-04-14 14:49 19.42498 -99.08541 7301 ft 18 kts 283°
2026-04-14 14:49 19.42555 -99.08714 7301 ft 27 kts 292°
2026-04-14 14:49 19.42629 -99.08897 7301 ft 27 kts 292°
2026-04-14 14:50 19.42698 -99.09051 7301 ft 17 kts 327°
2026-04-14 14:50 19.42786 -99.09002 7301 ft 16 kts 59°
2026-04-14 14:50 19.42913 -99.08773 7301 ft 67 kts 60°
2026-04-14 14:50 19.43264 -99.08148 7302 ft 129 kts 60°
2026-04-14 14:51 19.43802 -99.07178 7441 ft 168 kts 60°
2026-04-14 14:51 19.44397 -99.06097 8384 ft 171 kts 60°
2026-04-14 14:51 19.45033 -99.04948 8897 ft 194 kts 60°
2026-04-14 14:51 19.45742 -99.03650 9325 ft 213 kts 60°
2026-04-14 14:52 19.46416 -99.02180 9864 ft 230 kts 74°
2026-04-14 14:52 19.46498 -99.00471 10527 ft 242 kts 101°
2026-04-14 14:52 19.45805 -98.98830 11121 ft 256 kts 125°
2026-04-14 14:52 19.44399 -98.97534 11672 ft 280 kts 152°
2026-04-14 14:53 19.42490 -98.97086 12375 ft 292 kts 182°
2026-04-14 14:53 19.40514 -98.97601 13312 ft 297 kts 208°
2026-04-14 14:53 19.38956 -98.99016 14203 ft 299 kts 240°
2026-04-14 14:53 19.38072 -99.01004 15074 ft 299 kts 255°
2026-04-14 14:54 19.37540 -99.03138 15969 ft 303 kts 261°
2026-04-14 14:54 19.37146 -99.05346 16845 ft 307 kts 262°
2026-04-14 14:54 19.36824 -99.07633 17474 ft 322 kts 263°
2026-04-14 14:54 19.36511 -99.10046 17987 ft 339 kts 262°
2026-04-14 14:55 19.36170 -99.12547 18716 ft 347 kts 262°
2026-04-14 14:55 19.35809 -99.15089 19478 ft 349 kts 261°
2026-04-14 14:55 19.35439 -99.17637 20239 ft 352 kts 261°
2026-04-14 14:55 19.35064 -99.20204 20970 ft 354 kts 261°
2026-04-14 14:56 19.34293 -99.25443 21377 ft 361 kts 261°
2026-04-14 14:56 19.33907 -99.28064 21342 ft 358 kts 261°
2026-04-14 14:56 19.33524 -99.30666 21295 ft 357 kts 261°
2026-04-14 14:57 19.33141 -99.33263 21337 ft 356 kts 261°
2026-04-14 14:57 19.32760 -99.35851 21368 ft 356 kts 261°
2026-04-14 14:57 19.32432 -99.38454 21392 ft 358 kts 268°
2026-04-14 14:57 19.32704 -99.41163 21457 ft 382 kts 283°
2026-04-14 14:58 19.33442 -99.43929 21537 ft 396 kts 287°
2026-04-14 14:58 19.34275 -99.46697 21426 ft 402 kts 288°
2026-04-14 14:58 19.35122 -99.49507 21476 ft 401 kts 287°
2026-04-14 14:58 19.35955 -99.52332 21474 ft 402 kts 287°
2026-04-14 14:59 19.36780 -99.55165 21477 ft 402 kts 287°
2026-04-14 14:59 19.37599 -99.57999 21475 ft 402 kts 287°
2026-04-14 14:59 19.38175 -99.60835 21945 ft 392 kts 273°
2026-04-14 14:59 19.38152 -99.63724 22237 ft 390 kts 267°
2026-04-14 15:00 19.37973 -99.66627 22462 ft 400 kts 265°
2026-04-14 15:00 19.37721 -99.69589 22807 ft 406 kts 264°
2026-04-14 15:00 19.37484 -99.72571 23293 ft 405 kts 265°
2026-04-14 15:00 19.37293 -99.75570 23467 ft 412 kts 266°
2026-04-14 15:01 19.37112 -99.78580 23430 ft 409 kts 266°
2026-04-14 15:01 19.36928 -99.81570 23966 ft 403 kts 266°
2026-04-14 15:01 19.36741 -99.84534 24560 ft 404 kts 266°
2026-04-14 15:01 19.36556 -99.87519 25034 ft 407 kts 265°
2026-04-14 15:02 19.36368 -99.90482 25468 ft 410 kts 265°
2026-04-14 15:02 19.36177 -99.93506 25901 ft 413 kts 265°
2026-04-14 15:02 19.35981 -99.96552 26358 ft 416 kts 265°
2026-04-14 15:02 19.35787 -99.99621 26849 ft 418 kts 265°
2026-04-14 15:03 19.35590 -100.02699 27387 ft 419 kts 264°
2026-04-14 15:03 19.35390 -100.05784 27919 ft 419 kts 264°
2026-04-14 15:03 19.35193 -100.08865 28419 ft 420 kts 264°
2026-04-14 15:03 19.35230 -100.11983 28605 ft 432 kts 277°
2026-04-14 15:04 19.36267 -100.14994 28885 ft 444 kts 297°
2026-04-14 15:04 19.38047 -100.17691 29370 ft 446 kts 303°
2026-04-14 15:04 19.39898 -100.20313 29967 ft 443 kts 303°
2026-04-14 15:04 19.41745 -100.22911 30447 ft 441 kts 302°
2026-04-14 15:05 19.43596 -100.25496 30898 ft 438 kts 303°
2026-04-14 15:05 19.45438 -100.28058 31398 ft 435 kts 303°
2026-04-14 15:05 19.47269 -100.30605 31911 ft 432 kts 303°
2026-04-14 15:05 19.49058 -100.33092 32431 ft 429 kts 303°
2026-04-14 15:06 19.50859 -100.35591 32919 ft 426 kts 303°
2026-04-14 15:06 19.52659 -100.38082 33403 ft 424 kts 303°
2026-04-14 15:06 19.54453 -100.40559 33854 ft 422 kts 303°
2026-04-14 15:06 19.56228 -100.43002 34264 ft 410 kts 303°
2026-04-14 15:07 19.57946 -100.45349 34186 ft 396 kts 303°
2026-04-14 15:07 19.59620 -100.47627 34148 ft 387 kts 303°
2026-04-14 15:07 19.62927 -100.52151 34140 ft 390 kts 303°
2026-04-14 15:08 19.66234 -100.56684 34173 ft 392 kts 303°
2026-04-14 15:08 19.69536 -100.61284 34122 ft 388 kts 297°
2026-04-14 15:09 19.71685 -100.66448 34111 ft 383 kts 286°
2026-04-14 15:09 19.73510 -100.71743 34159 ft 382 kts 286°
2026-04-14 15:10 19.75318 -100.77040 34192 ft 381 kts 286°
2026-04-14 15:10 19.77124 -100.82347 34239 ft 382 kts 286°
2026-04-14 15:11 19.78928 -100.87648 34276 ft 382 kts 286°
2026-04-14 15:11 19.80717 -100.92915 34321 ft 382 kts 286°
2026-04-14 15:12 19.82516 -100.98218 34330 ft 382 kts 286°
2026-04-14 15:12 19.83686 -101.00763 34349 ft 388 kts 298°
2026-04-14 15:12 19.85417 -101.03003 34362 ft 397 kts 311°
2026-04-14 15:13 19.87656 -101.04771 34391 ft 407 kts 326°
2026-04-14 15:13 19.90267 -101.06005 34343 ft 414 kts 333°
2026-04-14 15:13 19.95695 -101.08077 34300 ft 415 kts 335°
2026-04-14 15:14 20.01134 -101.10139 34246 ft 415 kts 334°
2026-04-14 15:14 20.06566 -101.12220 34201 ft 414 kts 334°
2026-04-14 15:15 20.11995 -101.14304 34157 ft 415 kts 334°
2026-04-14 15:15 20.17386 -101.16372 34116 ft 414 kts 334°
2026-04-14 15:16 20.22812 -101.18458 34101 ft 414 kts 334°
2026-04-14 15:16 20.28237 -101.20548 34097 ft 415 kts 334°
2026-04-14 15:17 20.33666 -101.22641 34098 ft 414 kts 334°
2026-04-14 15:17 20.39091 -101.24736 34100 ft 415 kts 334°
2026-04-14 15:18 20.44472 -101.26838 34112 ft 413 kts 332°
2026-04-14 15:18 20.49670 -101.29398 34117 ft 406 kts 323°
2026-04-14 15:19 20.51890 -101.31206 34118 ft 398 kts 311°
2026-04-14 15:19 20.53849 -101.33289 34099 ft 398 kts 309°
2026-04-14 15:19 20.57695 -101.37534 34093 ft 397 kts 309°
2026-04-14 15:20 20.61539 -101.41773 34104 ft 397 kts 309°
2026-04-14 15:20 20.65383 -101.46006 34125 ft 397 kts 309°
2026-04-14 15:21 20.69229 -101.50243 34156 ft 397 kts 309°
2026-04-14 15:21 20.73049 -101.54454 34171 ft 397 kts 309°
2026-04-14 15:22 20.76891 -101.58693 34120 ft 399 kts 309°
2026-04-14 15:22 20.78828 -101.60833 33777 ft 399 kts 309°
2026-04-14 15:22 20.80762 -101.62968 33471 ft 400 kts 309°
2026-04-14 15:23 20.82708 -101.65122 32868 ft 404 kts 309°
2026-04-14 15:23 20.84664 -101.67286 32303 ft 405 kts 310°
2026-04-14 15:23 20.86621 -101.69448 31786 ft 404 kts 310°
2026-04-14 15:23 20.88579 -101.71612 31220 ft 406 kts 310°
2026-04-14 15:24 20.89880 -101.73052 30874 ft 407 kts 310°
2026-04-14 15:24 20.91853 -101.75234 30317 ft 409 kts 311°
2026-04-14 15:24 20.94486 -101.78148 29590 ft 410 kts 311°
2026-04-14 15:24 20.96478 -101.80355 28988 ft 414 kts 311°
2026-04-14 15:25 20.97830 -101.81851 28627 ft 413 kts 311°
2026-04-14 15:25 20.99802 -101.84036 28052 ft 412 kts 311°
2026-04-14 15:25 21.01785 -101.86233 27494 ft 408 kts 311°
2026-04-14 15:25 21.03749 -101.88412 26952 ft 404 kts 312°
2026-04-14 15:26 21.05696 -101.90572 26410 ft 401 kts 312°
2026-04-14 15:26 21.07627 -101.92710 25855 ft 399 kts 313°
2026-04-14 15:26 21.09690 -101.94720 25217 ft 399 kts 319°
2026-04-14 15:26 21.11849 -101.96552 24691 ft 395 kts 320°
2026-04-14 15:27 21.13996 -101.98371 24205 ft 391 kts 320°
2026-04-14 15:27 21.16109 -102.00198 23668 ft 389 kts 320°
2026-04-14 15:27 21.18164 -102.02005 23177 ft 385 kts 319°
2026-04-14 15:27 21.20227 -102.03829 22667 ft 384 kts 319°
2026-04-14 15:28 21.22281 -102.05654 22174 ft 383 kts 319°
2026-04-14 15:28 21.24333 -102.07477 21675 ft 382 kts 320°
2026-04-14 15:28 21.26380 -102.09294 21177 ft 381 kts 320°
2026-04-14 15:28 21.28416 -102.11101 20673 ft 379 kts 320°
2026-04-14 15:29 21.30447 -102.12910 20187 ft 378 kts 320°
2026-04-14 15:29 21.32469 -102.14708 19698 ft 377 kts 320°
2026-04-14 15:29 21.34482 -102.16498 19202 ft 375 kts 320°
2026-04-14 15:29 21.36298 -102.18113 18760 ft 373 kts 320°
2026-04-14 15:30 21.38304 -102.19898 18317 ft 371 kts 320°
2026-04-14 15:30 21.40389 -102.21470 18126 ft 364 kts 333°
2026-04-14 15:30 21.42787 -102.22335 17807 ft 365 kts 354°
2026-04-14 15:30 21.45274 -102.22356 17707 ft 363 kts
2026-04-14 15:31 21.47807 -102.22203 17499 ft 363 kts
2026-04-14 15:31 21.50326 -102.22048 17328 ft 362 kts
2026-04-14 15:31 21.52850 -102.21917 16980 ft 362 kts
2026-04-14 15:31 21.55351 -102.21791 16673 ft 358 kts
2026-04-14 15:32 21.57838 -102.21665 16222 ft 357 kts
2026-04-14 15:32 21.60304 -102.21543 15810 ft 352 kts
2026-04-14 15:32 21.62757 -102.21419 15063 ft 356 kts
2026-04-14 15:32 21.65226 -102.21296 14630 ft 349 kts
2026-04-14 15:33 21.67625 -102.21177 14224 ft 341 kts
2026-04-14 15:33 21.69971 -102.21059 13800 ft 334 kts
2026-04-14 15:33 21.72279 -102.20945 13331 ft 330 kts
2026-04-14 15:33 21.74559 -102.20831 12829 ft 325 kts
2026-04-14 15:34 21.76808 -102.20720 12297 ft 322 kts
2026-04-14 15:34 21.78968 -102.20611 11722 ft 306 kts
2026-04-14 15:34 21.81032 -102.20508 11244 ft 289 kts
2026-04-14 15:34 21.82975 -102.20411 10802 ft 270 kts
2026-04-14 15:35 21.84779 -102.20358 10427 ft 252 kts 356°
2026-04-14 15:35 21.86412 -102.20864 9993 ft 246 kts 326°
2026-04-14 15:35 21.87510 -102.22295 9656 ft 253 kts 294°
2026-04-14 15:35 21.87823 -102.24150 9289 ft 253 kts 273°
2026-04-14 15:36 21.87839 -102.26041 8948 ft 251 kts 270°
2026-04-14 15:36 21.87847 -102.27895 8618 ft 240 kts 272°
2026-04-14 15:36 21.87727 -102.29629 8336 ft 227 kts 251°
2026-04-14 15:36 21.86766 -102.30935 8270 ft 229 kts 213°
2026-04-14 15:37 21.85238 -102.31409 8196 ft 232 kts 186°
2026-04-14 15:37 21.83681 -102.31406 8129 ft 213 kts 178°
2026-04-14 15:37 21.82246 -102.31341 7912 ft 199 kts 180°
2026-04-14 15:37 21.80916 -102.31332 7778 ft 184 kts 182°
2026-04-14 15:38 21.79684 -102.31368 7674 ft 170 kts 184°
2026-04-14 15:38 21.78512 -102.31427 7564 ft 166 kts 185°
2026-04-14 15:38 21.77401 -102.31493 7388 ft 155 kts 184°
2026-04-14 15:38 21.76341 -102.31553 7064 ft 150 kts 184°
2026-04-14 15:39 21.75332 -102.31608 6774 ft 138 kts 184°
2026-04-14 15:39 21.74386 -102.31659 6565 ft 135 kts 184°
2026-04-14 15:39 21.73461 -102.31662 6501 ft 133 kts 182°
2026-04-14 15:39 21.72527 -102.31698 6378 ft 137 kts 183°
2026-04-14 15:40 21.71573 -102.31741 6179 ft 137 kts 183°
2026-04-14 15:40 21.70679 -102.31782 6114 ft 113 kts 182°
2026-04-14 15:40 21.70068 -102.31812 6117 ft 56 kts 182°
2026-04-14 15:40 21.69856 -102.31821 6109 ft 23 kts 174°
2026-04-14 15:41 21.69840 -102.31765 6108 ft 14 kts 44°
2026-04-14 15:41 21.69921 -102.31707 6110 ft 14 kts 33°
2026-04-14 15:41 21.70009 -102.31645 6110 ft 16 kts 33°
2026-04-14 15:41 21.70067 -102.31554 6114 ft 16 kts 85°
2026-04-14 15:42 21.70135 -102.31514 6107 ft 10 kts
2026-04-14 15:42 21.70155 -102.31487 6114 ft 6 kts 84°
2026-04-14 15:42 21.70154 -102.31465 6102 ft 0 kts 92°